Weather History for KORE - March, 2012

Change the Weather History Date:

Sunday, March 25, 2012

  Actual Average Record
Temperature  
Mean Temperature 44 °F -  
Max Temperature 48 °F 44 °F 55 °F (2003)
Min Temperature 39 °F 24 °F 10 °F (2014)
Degree Days  
Heating Degree Days 20    
Moisture  
Dew Point 39 °F    
Average Humidity 78    
Maximum Humidity 96    
Minimum Humidity 61    
Precipitation  
Precipitation 0.03 in - - ()
Sea Level Pressure  
Sea Level Pressure 29.86 in    
Wind  
Wind Speed 2 mph (NE)    
Max Wind Speed 6 mph    
Max Gust Speed -    
Visibility 10 miles    
Events Rain    
Averages and records for this station are not official NWS values.
T = Trace of Precipitation, MM = Missing Value Source: NWS Daily Summary

Daily Weather History Graph

Daily Weather History Graph

Search for Another Location

Airport or City:

Trip Planner

Search our weather history database for the weather conditions in past years. The results will help you decide how hot, cold, wet, or windy it might be!

Date:

Astronomy

Mar. 25, 2012 Rise Set
Actual Time 6:42 AM EDT 7:07 PM EDT
Civil Twilight 6:14 AM EDT 7:35 PM EDT
Nautical Twilight 5:41 AM EDT 8:09 PM EDT
Astronomical Twilight 5:07 AM EDT 8:43 PM EDT
Moon 7:48 AM EDT 10:26 PM EDT
Length of Visible Light 13h 21m
Length of Day
12h 24m
Waxing Crescent, 8% of the Moon is Illuminated
Mar 25
Waxing Crescent
Mar 30
First Quarter
Apr 6
Full
Apr 13
Last Quarter
Apr 21
New

Hourly Weather History & Observations

Time (EDT) Temp. Windchill Dew Point Humidity Pressure Visibility Wind Dir Wind Speed Gust Speed Precip Events Conditions
12:52 AM 48.9 °F - 36.0 °F 61% 30.02 in 10.0 mi South 3.5 mph - 0.00 in   Overcast
1:52 AM 46.9 °F - 39.9 °F 77% 30.01 in 10.0 mi Calm Calm - 0.00 in   Overcast
2:52 AM 46.0 °F - 42.1 °F 86% 29.98 in 10.0 mi Calm Calm - N/A   Overcast
3:52 AM 46.0 °F - 42.1 °F 86% 29.97 in 10.0 mi Calm Calm - 0.01 in Rain Light Rain
5:52 AM 44.1 °F 42.5 °F 39.0 °F 82% 29.94 in 10.0 mi ESE 3.5 mph - 0.02 in Rain Light Rain
6:52 AM 44.1 °F - 41.0 °F 89% 29.94 in 10.0 mi Calm Calm - 0.00 in Rain Light Rain
8:52 AM 44.1 °F - 39.9 °F 85% 29.93 in 10.0 mi Calm Calm - N/A   Overcast
10:52 AM 45.0 °F - 34.0 °F 65% 29.91 in 10.0 mi Calm Calm - N/A   Overcast
11:52 AM 45.0 °F 41.8 °F 36.0 °F 71% 29.90 in 10.0 mi NNE 5.8 mph - N/A   Overcast
12:10 PM 44.6 °F 42.2 °F 35.6 °F 71% 29.88 in 10.0 mi NE 4.6 mph - N/A   Overcast
12:52 PM 45.0 °F - 36.0 °F 71% 29.89 in 6.0 mi Calm Calm - 0.00 in Rain Light Rain
1:26 PM 44.6 °F - 37.4 °F 76% 29.86 in 10.0 mi Calm Calm - 0.00 in   Overcast
1:52 PM 44.1 °F - 37.0 °F 76% 29.86 in 10.0 mi Calm Calm - 0.00 in   Overcast
2:52 PM 46.0 °F 44.8 °F 37.0 °F 71% 29.83 in 10.0 mi Variable 3.5 mph - N/A   Overcast
3:52 PM 46.9 °F - 37.9 °F 71% 29.81 in 10.0 mi Calm Calm - N/A   Overcast
4:52 PM 48.0 °F - 39.0 °F 71% 29.79 in 10.0 mi North 4.6 mph - N/A   Overcast
5:52 PM 46.9 °F - 39.9 °F 77% 29.79 in 10.0 mi NE 4.6 mph - N/A   Overcast
6:37 PM 46.4 °F 45.2 °F 39.2 °F 76% 29.76 in 10.0 mi East 3.5 mph - N/A   Overcast
6:52 PM 46.9 °F - 39.9 °F 77% 29.78 in 10.0 mi Calm Calm - N/A   Overcast
7:52 PM 45.0 °F 43.5 °F 39.9 °F 82% 29.78 in 10.0 mi NNE 3.5 mph - N/A   Overcast
8:52 PM 45.0 °F - 39.9 °F 82% 29.77 in 10.0 mi Calm Calm - N/A   Overcast
9:08 PM 44.6 °F - 39.2 °F 81% 29.76 in 10.0 mi Calm Calm - N/A   Overcast
9:52 PM 44.1 °F - 41.0 °F 89% 29.75 in 10.0 mi Calm Calm - N/A   Overcast
10:52 PM 41.0 °F - 39.0 °F 93% 29.74 in 10.0 mi Calm Calm - N/A   Clear
11:52 PM 39.0 °F - 37.9 °F 96% 29.73 in 10.0 mi Calm Calm - N/A   Clear